SCP
0 0 1 1 1 1 2 2 1 1 0 0 0 0 0 0 0 0 0 0 0 0 0 0 0 0 0 0 0 0 0 0 0 0 0 0 0 0 0 0 0 0 0
0 0 1 1 1 1 1 1 1 1 1 0 0 0 0 0 0 0 0 0 0 0 0 0 0 0 0 0 0 0 0 0 0 0 0 0 0 0 0 0 0 0 0
0 0 0 1 1 1 1 1 1 1 1 0 0 0 0 0 0 0 0 0 0 0 0 0 0 0 0 0 0 0 0 1 1 1 0 0 0 0 0 0 0 0 0
0 0 0 1 1 1 1 1 1 1 1 0 0 0 0 0 0 0 0 0 0 0 0 0 0 0 0 0 0 0 0 0 0 1 0 0 0 0 0 0 0 0 0
0 0 0 1 1 2 2 1 1 1 1 1 0 0 0 0 0 0 0 0 0 0 0 0 0 0 0 0 0 0 0 0 0 0 0 0 0 0 0 0 0 0 0
0 0 0 1 1 2 2 2 2 1 1 1 0 0 0 0 0 0 0 0 0 0 0 0 0 0 0 0 0 0 0 0 0 0 0 0 0 0 0 0 0 0 0
0 0 0 1 1 2 2 2 2 2 1 1 0 0 0 0 0 0 0 0 0 0 0 0 0 0 0 0 0 0 0 0 0 0 0 0 0 0 0 0 0 0 0
0 0 0 0 1 1 2 2 2 2 1 1 0 0 0 0 0 0 0 0 0 0 0 0 0 0 0 0 0 0 0 0 0 0 0 0 0 0 0 0 0 0 0
0 0 0 0 0 1 1 2 2 2 1 1 1 0 0 0 0 0 0 0 0 0 0 0 0 0 0 0 0 0 0 0 0 0 0 0 0 0 0 0 0 0 0
0 0 0 0 0 1 1 1 1 1 1 1 1 0 0 0 0 0 0 0 0 0 0 0 0 0 0 0 0 0 0 0 0 0 0 0 0 0 0 0 0 0 0
0 0 0 0 0 1 1 1 1 0 0 0 0 0 0 0 0 0 0 0 0 0 0 0 0 0 0 0 0 0 0 0 0 0 0 0 0 0 0 0 0 0 0
0 0 0 0 0 1 1 1 0 0 0 0 0 0 0 0 0 0 0 0 0 0 0 0 0 0 0 0 0 0 0 0 0 0 0 0 0 0 0 0 0 0 0
0 0 0 0 0 0 1 0 0 0 0 0 0 0 0 0 0 0 0 0 0 0 0 0 0 0 0 0 0 0 0 0 0 0 0 0 0 0 0 0 0 0 0
0 0 0 0 0 0 0 0 0 0 0 0 0 0 0 0 0 0 0 0 0 0 0 0 0 0 0 0 0 0 0 0 0 0 0 0 0 0 0 0 0 0 0
0 0 0 0 0 0 0 0 0 0 0 0 0 0 0 0 0 0 0 0 0 0 0 0 0 0 0 0 0 0 0 0 0 0 0 0 0 0 0 0 0 0 0
0 0 0 0 0 0 0 0 0 0 0 0 0 0 0 0 0 0 0 0 0 0 0 0 0 0 0 0 0 0 0 0 0 0 0 0 0 0 0 0 0 0 0
0 0 0 0 0 0 0 0 0 0 0 0 0 0 0 0 0 0 0 0 0 0 0 0 0 0 0 0 0 0 0 0 0 0 0 0 0 0 0 0 0 0 0
0 0 0 0 0 0 0 0 0 0 0 0 0 0 0 0 0 0 0 0 0 0 0 0 0 0 0 0 0 0 0 0 0 0 0 0 0 0 0 0 0 0 0
0 0 0 0 0 0 0 0 0 0 0 0 0 0 0 0 0 0 0 0 0 0 0 0 0 0 0 0 0 0 0 0 0 0 0 0 0 0 0 0 0 0 0
0 0 0 0 0 0 0 0 0 0 0 0 0 0 0 0 0 0 0 0 0 0 0 0 0 0 0 0 0 0 0 0 0 0 0 0 0 0 0 0 0 0 0
0 0 0 0 0 0 0 0 0 0 0 0 0 0 0 0 0 0 0 0 0 0 0 0 0 0 0 0 0 0 0 0 0 0 0 0 0 0 0 0 0 0 0
0 0 0 0 0 0 0 0 0 0 0 0 0 0 0 0 0 0 0 0 0 0 0 0 0 0 0 0 0 0 0 0 0 0 0 0 0 0 0 0 0 0 0
0 0 0 0 0 0 0 0 0 0 0 0 0 0 0 0 0 0 0 0 0 0 0 0 0 0 0 0 0 0 0 0 0 0 0 0 0 0 0 0 0 0 0
0 0 0 0 0 0 0 0 0 0 0 0 0 0 0 0 0 0 0 0 0 0 0 0 0 0 0 0 0 0 0 0 0 0 0 0 0 0 0 0 0 0 0
0 0 0 0 0 0 0 0 0 0 0 0 0 0 0 0 0 0 0 0 0 0 0 0 0 0 0 0 0 0 0 0 0 0 0 0 0 0 0 0 0 0 0
0 0 0 0 0 0 0 0 0 0 0 0 0 0 0 0 0 0 0 0 0 0 0 0 0 0 0 0 0 0 0 0 0 0 0 0 0 0 0 0 0 0 0
Wind_Speed
1 1 1 1 2 2 2 2 2 2 1 1 0 1 1 1 1 2 3 3 3 2 2 2 2 2 2 2 3 2 2 3 3 2 2 2 2 2 2 2 3 4 5
2 1 2 2 2 2 2 2 2 2 1 1 0 0 1 1 1 1 2 3 3 3 3 2 2 2 2 3 3 3 2 2 3 1 2 3 3 3 3 2 3 4 4
2 2 1 1 1 2 2 1 2 2 2 1 1 1 1 1 1 2 2 3 3 3 3 3 2 2 2 2 2 2 2 1 2 2 1 1 3 4 2 2 3 4 3
1 1 1 0 1 1 0 1 1 1 2 1 2 2 1 0 0 1 1 2 3 3 3 3 3 3 2 2 2 2 2 1 2 2 2 1 1 2 3 2 2 4 4
2 2 2 1 1 1 0 0 1 1 2 2 2 1 1 0 1 1 2 2 2 2 3 3 2 3 2 3 3 3 3 2 1 1 2 2 2 1 2 5 4 3 3
1 1 1 0 0 0 0 0 1 1 1 1 2 1 1 1 1 1 1 1 2 2 3 3 2 2 2 2 2 2 2 2 2 1 2 1 2 2 2 4 6 5 4
2 1 1 1 0 0 0 0 0 0 1 1 1 1 0 1 0 0 0 1 1 1 2 2 2 2 2 2 2 2 2 2 2 1 1 1 2 2 2 4 5 6 5
2 2 2 2 1 1 1 0 0 0 1 0 0 0 0 0 0 0 0 0 1 1 1 2 2 1 2 2 2 2 2 2 2 2 2 2 2 2 2 3 4 5 4
3 3 2 2 2 2 1 1 1 0 0 0 0 0 0 0 1 0 0 0 1 1 1 1 2 2 2 2 2 1 2 2 1 2 2 2 2 2 2 2 3 4 6
3 3 2 2 3 2 2 1 1 1 1 0 1 0 1 1 1 0 0 1 1 1 1 1 2 2 2 2 1 1 2 2 2 2 2 2 2 2 2 2 2 3 5
4 3 3 3 2 2 1 1 1 1 1 1 1 1 1 1 1 1 1 0 1 1 1 1 2 2 2 2 1 1 2 2 2 2 2 3 3 2 2 2 2 3 4
4 3 3 2 2 2 2 2 2 2 2 1 1 1 1 0 1 1 1 1 1 1 1 1 1 2 2 2 2 2 2 2 3 3 3 4 3 3 3 3 3 3 4
3 3 3 3 3 3 3 3 2 2 2 1 1 1 1 1 1 1 1 1 1 1 1 1 1 2 2 2 2 2 2 2 2 3 3 4 4 4 3 4 4 4 4
4 4 4 4 4 4 3 3 3 2 2 1 2 2 2 2 1 1 0 0 1 1 1 1 2 2 2 2 2 2 2 2 2 3 3 4 4 4 5 4 5 5 5
5 5 5 5 4 4 3 3 3 3 2 2 2 2 2 1 0 0 0 0 1 1 1 2 2 2 2 2 2 2 2 2 3 3 4 4 5 6 5 5 5 5 5
6 6 5 5 5 5 4 4 4 3 3 3 3 2 1 1 1 1 1 1 1 1 1 2 2 3 3 4 4 3 3 3 4 4 4 5 5 6 8 9 9 8 7
6 6 6 5 5 5 5 5 4 3 2 3 2 2 1 1 2 1 1 1 2 1 2 2 2 3 4 5 5 5 4 4 4 4 5 5 5 5 5 7 9 8 9
6 6 5 5 5 4 3 3 2 3 3 3 3 2 2 2 2 2 2 2 2 2 2 3 3 3 4 6 6 6 4 4 4 5 5 5 6 5 6 6 7 7 6
6 5 5 5 4 4 3 3 2 3 3 4 4 3 3 3 3 3 3 3 2 2 3 3 3 3 4 6 6 6 3 4 5 5 5 5 5 8 9 7 7 7 7
4 4 3 2 3 3 3 3 3 3 5 5 4 3 3 4 4 4 3 2 2 3 3 3 3 4 4 6 7 6 3 4 4 4 4 5 6 8 9 6 6 7 7
3 3 3 3 4 3 3 4 4 5 5 3 2 3 3 3 4 3 2 2 2 2 3 4 4 4 4 6 7 7 4 4 4 4 4 4 8 9 10 8 5 8 8
3 2 3 4 3 3 4 4 6 5 2 2 2 3 3 3 2 2 3 2 2 3 3 3 4 3 3 5 7 8 8 7 5 5 4 5 8 10 9 7 7 9 7
4 3 4 4 3 3 4 5 5 3 2 2 3 3 3 3 2 3 3 2 2 3 3 3 4 4 3 4 7 8 8 8 5 4 7 8 9 9 6 7 8 6 3
4 3 3 4 4 3 4 5 3 2 3 3 3 3 3 3 2 2 3 3 3 4 4 4 5 4 4 4 3 3 4 5 5 4 5 8 8 7 6 5 4 3 3
4 3 4 5 5 4 4 4 2 3 3 4 3 3 3 3 3 3 4 5 5 5 5 5 4 4 5 6 7 5 4 3 4 4 2 2 3 3 3 3 3 3 3
4 4 5 5 5 4 5 4 3 4 4 3 3 3 3 3 3 3 3 6 6 8 9 8 6 5 7 8 8 8 8 7 6 3 2 3 3 4 4 4 4 3 3
Wind_Direction
298 11 16 36 46 37 39 43 51 41 48 69 105 93 57 35 38 44 39 37 32 34 46 36 25 22 26 11 360 346 348 1 354 349 332 333 339 28 16 21 22 13 11
330 359 17 24 27 31 31 37 28 30 40 48 15 146 126 72 62 44 34 29 29 26 33 34 31 19 21 17 13 9 358 360 11 3 338 329 331 7 357 9 20 10 6
250 281 343 360 4 23 24 32 27 31 36 56 91 63 73 52 28 17 26 23 28 30 29 29 30 24 31 19 11 12 15 349 353 23 30 330 297 315 318 357 12 7 358
254 264 257 292 271 265 332 11 31 45 39 68 101 123 122 185 260 4 17 20 26 29 30 31 30 26 27 24 15 19 9 22 0 349 6 2 284 297 304 314 348 351 348
231 237 238 223 229 228 215 310 31 49 44 63 86 111 94 354 2 50 37 14 8 23 24 28 33 28 24 20 18 17 20 25 23 5 334 327 331 332 286 297 316 326 325
214 257 284 241 272 5 49 26 71 44 36 61 71 88 94 71 44 20 24 9 4 13 15 18 25 25 21 16 11 20 26 21 26 23 21 359 330 315 300 290 305 306 304
212 245 295 290 276 18 16 24 96 34 16 52 62 73 109 122 140 276 324 344 356 354 359 11 9 6 6 11 13 26 28 22 18 6 352 346 316 309 297 288 298 298 298
225 224 245 254 246 227 213 160 125 322 350 36 324 17 179 204 228 247 252 258 286 304 345 359 359 356 3 7 13 18 10 15 7 356 344 334 321 322 308 295 301 304 296
227 230 247 243 232 222 212 195 184 223 288 259 272 318 282 261 270 295 318 320 314 339 6 2 357 353 359 4 14 12 351 354 338 325 326 316 310 313 308 305 295 288 295
239 240 239 235 228 221 216 201 185 191 227 250 240 283 283 272 269 291 309 329 328 343 355 7 360 354 355 359 357 344 335 338 325 323 324 316 310 310 306 298 295 284 280
234 234 235 235 228 229 220 217 224 218 237 257 282 286 293 304 296 265 267 287 329 346 356 353 351 348 342 335 328 320 323 328 324 323 320 312 312 310 309 305 301 295 286
234 229 232 231 231 234 233 226 225 224 234 232 240 251 266 283 272 279 307 329 344 349 340 346 349 339 335 326 311 312 324 316 316 316 317 311 312 311 308 303 297 293 289
246 235 234 229 228 234 235 231 230 228 232 223 229 248 259 248 248 262 310 353 345 343 344 345 328 319 317 313 306 303 315 312 306 308 309 306 307 305 301 295 291 290 294
241 231 232 235 232 231 230 230 237 227 220 217 224 241 250 245 254 267 11 5 336 326 319 307 295 294 297 296 299 310 309 304 305 305 298 294 288 287 289 292 292 294 295
249 238 235 235 234 234 233 230 232 227 213 210 223 238 245 251 282 317 317 340 333 308 300 300 298 297 291 283 294 299 294 293 299 301 298 295 293 293 293 294 295 296 293
251 243 238 235 234 232 228 224 226 223 208 211 227 232 221 225 237 256 266 286 296 302 306 293 295 299 296 300 301 299 296 293 291 294 297 297 292 299 302 300 300 298 292
246 240 237 234 235 232 224 221 222 211 202 214 226 221 216 233 246 249 260 266 271 278 282 286 290 290 289 298 302 306 300 291 284 284 288 293 297 297 298 300 302 300 294
240 237 235 236 233 229 223 217 206 196 203 217 225 225 215 234 249 247 248 257 267 269 272 279 279 283 288 297 302 309 305 293 287 286 283 282 288 292 297 300 299 296 295
233 232 231 230 226 222 211 194 205 205 212 226 230 225 216 227 236 242 248 254 259 268 273 282 278 281 288 289 294 302 297 289 291 290 289 284 282 290 298 299 297 298 299
233 235 238 228 225 224 191 190 213 215 227 234 236 230 221 224 233 241 250 256 253 259 271 278 276 273 278 282 288 294 287 285 290 294 293 288 291 299 303 301 296 295 299
245 237 232 227 228 212 182 203 217 229 235 236 236 234 229 229 235 243 250 247 248 261 265 274 279 274 272 276 280 286 288 283 290 291 295 293 296 300 303 304 300 299 311
255 237 232 243 239 200 190 215 232 239 228 216 227 236 236 232 229 230 246 243 233 245 258 269 279 276 273 273 280 283 284 292 288 285 287 291 299 302 304 306 306 312 318
245 234 226 244 247 217 203 224 241 224 199 205 226 236 239 236 229 223 231 240 235 239 253 257 266 275 272 271 276 280 284 288 291 288 289 296 299 304 306 307 310 315 309
243 236 229 240 249 236 228 235 238 198 190 213 228 229 228 241 240 235 229 227 229 237 245 251 260 271 274 271 274 280 285 284 285 291 296 296 297 300 307 316 310 302 293
245 230 228 239 248 244 241 239 219 192 208 222 225 230 229 229 236 237 236 239 237 235 243 246 249 258 266 267 277 287 283 284 284 300 301 302 300 293 296 297 293 291 291
240 238 240 244 250 243 241 235 213 199 203 221 225 224 225 228 230 243 268 259 256 263 260 260 264 267 269 282 276 276 280 285 295 312 288 283 284 282 287 292 292 287 285